User: anonymous   Login
Location: Unspecified
(0.0000°N, 0.0000°E)
Time: 14:22:43
(UTC+00:00)
Language:

PAKSAT 1R - Orbit

View from above orbital plane
View from above orbital plane
View from above satellite
View from above satellite

Ground track
Ground track

The orbit data is extracted from the following two-line orbital elements,

1 37779U 11042A   14325.00887513  .00000000  00000-0  10000-3 0  6955
2 37779 000.0206 112.8342 0003115 110.7285 237.6366 01.00273589 12010
Epoch (UTC): 21 November 2014 00:12:46
Eccentricity: 0.0003115
inclination: 0.0206°
perigee height: 35772 km
apogee height: 35799 km
right ascension of ascending node: 112.8342°
argument of perigee: 110.7285°
revolutions per day: 1.00273589
mean anomaly at epoch: 237.6366°
orbit number at epoch: 1201

The dashed part of the orbit path shows where the satellite is in the earth's shadow,  

DLR